#timestamp,LO_Frequency,Hit,StdDev 
1624374015.8,286047002.3,N
1624374035.6,286047002.4,N
1624374055.5,286047002.4,N
1624374075.3,286046999.9,N
1624374095.1,286047002.8,N
1624374115.9,286046999.9,N
1624374135.7,286047001.0,N
1624374155.5,286046999.9,N
1624374175.4,286047000.7,N
1624374195.2,286047000.7,N
1624374215.0,286046998.1,N
1624374215.9,286046998.1,N
1624374235.8,286047000.2,N
1624374255.6,286046999.8,N
1624374275.4,286047000.1,N
1624374295.3,286047002.7,N
1624374315.1,286047000.5,N
1624374335.8,286047002.8,N
1624374355.7,286047000.9,N
1624374375.5,286047002.8,N
1624374395.3,286047000.6,N
1624374415.2,286047002.5,N
1624374435.9,286047002.4,N
1624374455.7,286047002.5,N
1624374475.6,286047002.6,N
1624374495.4,286047002.3,N
1624374515.2,286047002.7,N
1624374535.1,286047001.9,N
1624374536.0,286047001.9,N
1624374555.8,286047002.6,N
1624374575.6,286047002.4,N
1624374595.5,286047000.2,N
1624374615.3,286046999.8,N
1624374635.1,286046999.7,N
1624374655.9,286047000.1,N
1624374675.7,286047002.4,N
1624374695.5,286047002.4,N
1624374715.4,286047002.7,N
1624374735.2,286047002.4,N
1624374755.0,286047002.6,N
1624374755.9,286047002.6,N
1624374775.8,286047001.9,N
1624374795.6,286047000.0,N
1624374815.4,286046999.7,N
1624374835.3,286046999.8,N
1624374855.1,286047000.5,N
1624374856.0,286047000.5,N
1624374875.8,286047000.0,N
1624374895.7,286047000.7,N
1624374915.5,286047000.0,N
1624374935.3,286046999.9,N
1624374955.2,286047001.1,N
1624374975.9,286047000.8,N
1624374995.7,286046998.6,N
1624375015.6,286046998.3,N
1624375035.4,286046998.3,N
1624375055.2,286046998.1,N
1624375075.1,286047000.8,N
1624375076.0,286047000.8,N
1624375095.8,286046998.7,N
1624375115.6,286047000.0,N
1624375135.5,286046998.1,N
1624375155.3,286046998.1,N
1624375175.1,286047001.2,N
1624375195.9,286047000.9,N
1624375215.7,286047000.8,N
1624375235.5,286046998.2,N
1624375255.4,286046998.5,N
1624375275.2,286046998.2,N
1624375295.0,286047001.1,N
1624375295.9,286047001.1,N
1624375315.8,286047000.7,N
1624375335.6,286047000.5,N
1624375355.4,286046999.9,N
1624375375.3,286047000.4,N
1624375395.1,286047000.8,N
1624375396.0,286047000.8,N
1624375415.8,286047001.1,N
1624375435.7,286047000.0,N
1624375455.5,286047000.4,N
1624375475.3,286047002.3,N
1624375495.2,286047000.6,N
1624375515.9,286047000.5,N
1624375535.7,286047000.3,N
1624375555.6,286047000.6,N
1624375575.4,286047002.6,N
1624375595.2,286047000.6,N
1624375615.0,286046999.9,N
1624375615.9,286046999.9,N
1624375635.8,286046999.8,N
1624375655.6,286047002.4,N
1624375675.4,286047000.1,N
1624375695.3,286047000.0,N
1624375715.1,286047000.0,N
1624375735.8,286047000.6,N
1624375755.7,286046999.0,N
1624375775.5,286046997.5,N
1624375795.3,286046995.3,Y
1624375815.2,286046995.7,P
1624375835.0,286046994.1,N
1624375835.9,286046994.1,N
1624375855.7,286046994.6,N
1624375875.6,286046993.5,N
1624375895.4,286046994.2,N
1624375915.2,286046993.3,Y
1624375935.1,286047000.6,P
1624375936.0,286047000.6,N
1624375955.8,286047000.8,N
1624375975.6,286047002.7,N
1624375995.5,286047002.7,N
1624376015.3,286047001.7,N
1624376035.1,286047001.3,N
1624376055.9,286047004.4,N
1624376075.7,286047003.8,N
1624376095.5,286047005.6,N
1624376115.4,286047003.4,N
1624376135.2,286047002.9,N
1624376155.0,286047005.5,N
1624376155.9,286047005.5,N
1624376175.8,286047006.0,N
1624376195.6,286047005.7,N
1624376215.4,286047005.6,N
1624376235.3,286047005.4,N
1624376255.1,286047002.9,N
1624376275.8,286047004.8,N
1624376295.7,286047005.7,N
1624376315.5,286047003.2,N
1624376335.3,286047003.1,N
1624376355.2,286047003.7,N
1624376375.9,286047003.8,N
1624376395.7,286047005.5,N
1624376415.6,286047002.9,N
1624376435.4,286047003.4,N
1624376455.2,286047005.1,N
1624376475.1,286047005.8,N
1624376476.0,286047005.8,Y
1624376495.8,286046998.7,P
1624376515.6,286046999.2,N
1624376535.5,286046998.8,N
1624376555.3,286046997.1,N
1624376575.1,286046995.7,N
1624376595.9,286046996.2,N
1624376615.7,286046993.5,N
1624376635.5,286046994.8,N
1624376655.4,286046992.5,N
1624376675.2,286046992.2,N
1624376695.0,286046992.7,N
1624376695.9,286046992.7,N
1624376715.8,286046991.7,N
1624376735.6,286046993.7,N
1624376755.4,286046995.8,N
1624376775.2,286046997.9,N
1624376795.1,286046999.2,N
1624376796.0,286046999.2,N
1624376815.8,286046998.4,N
1624376835.6,286046998.3,N
1624376855.5,286047000.7,N
1624376875.3,286047000.2,N
1624376895.1,286047000.0,N
1624376915.9,286047000.5,N
1624376935.7,286047000.5,N
1624376955.5,286047000.2,N
1624376975.4,286047000.0,N
1624376995.2,286047000.6,N
1624377015.0,286047000.3,N
1624377015.9,286047000.3,N
1624377035.8,286047000.5,N
1624377055.6,286047000.5,N
1624377075.4,286046999.9,N
1624377095.3,286047000.0,N
1624377115.1,286047002.1,N
1624377135.8,286047002.0,N
1624377155.7,286047000.1,N
1624377175.5,286046999.9,N
1624377195.3,286047002.4,N
1624377215.2,286047002.1,N
1624377235.0,286047002.3,N
1624377235.9,286047002.3,N
1624377255.7,286047000.0,N
1624377275.6,286047002.6,N
1624377295.4,286046999.8,N
1624377315.2,286047002.1,N
1624377335.1,286047002.8,N
1624377336.0,286047002.8,N
1624377355.8,286047000.0,N
1624377375.6,286047000.2,N
1624377395.5,286047000.3,N
1624377415.3,286046998.1,N
1624377435.1,286046998.3,N
1624377455.9,286046996.7,N
1624377475.7,286046997.3,N
1624377495.5,286046994.9,Y
1624377515.4,286046995.6,P
1624377535.2,286046995.9,N
1624377555.0,286046996.2,N
1624377555.9,286046996.2,N
1624377575.8,286046996.2,N
1624377595.6,286046993.4,Y
